Location: Engelmannsreuth
(49.8125°N, 11.6497°E)
Time: 07:49:36
(UTC+00:00)

STARLINK-1152 - Pass Details

Date: 17 February 2020
Orbit: 379 x 380 km, 53.0° (Epoch: 28 March)

Event Time Altitude Azimuth Distance (km) Brightness Sun altitude
Exits shadow 03:33:07 17° 64° (ENE) 1,058 5.8 -27.6°
Drops below altitude 10° 03:34:00 10° 67° (ENE) 1,413 6.7 -27.5°
Enters shadow 04:29:06 -70° 262° (W) 12,404 10.5 -18.7°
